| time (UTC) | temp F | wind direction | speed MPH | gust MPH | rain 1hr in | rain 24hr in | rain mn in | humidity % | barometer mb |
| 20260507142523 | 85 | 72 | 1.0 | 8.0 | 0.00 | 0.00 | 0.00 | 81 | 1015.8 |
| 20260507142023 | 85 | 74 | 1.0 | 5.0 | 0.00 | 0.00 | 0.00 | 80 | 1015.8 |
| 20260507141539 | 85 | 20 | 1.0 | 5.0 | 0.00 | 0.00 | 0.00 | 79 | 1015.8 |
| 20260507141026 | 85 | 0 | 1.0 | 5.0 | 0.00 | 0.00 | 0.00 | 80 | 1015.7 |
| 20260507140522 | 84 | 74 | 0.0 | 5.0 | 0.00 | 0.00 | 0.00 | 80 | 1015.7 |
| 20260507140104 | 84 | 246 | 0.0 | 3.0 | 0.00 | 0.00 | 0.00 | 81 | 1015.7 |
| 20260507135522 | 83 | 107 | 0.0 | 3.0 | 0.00 | 0.00 | 0.00 | 82 | 1015.7 |
| 20260507135022 | 83 | 0 | 0.0 | 2.0 | 0.00 | 0.00 | 0.00 | 84 | 1015.7 |
| 20260507134539 | 82 | 0 | 0.0 | 1.0 | 0.00 | 0.00 | 0.00 | 85 | 1015.7 |
| 20260507134021 | 82 | 0 | 0.0 | 4.0 | 0.00 | 0.00 | 0.00 | 85 | 1015.8 |
| 20260507133522 | 81 | 0 | 0.0 | 4.0 | 0.00 | 0.00 | 0.00 | 85 | 1015.7 |
| 20260507133038 | 81 | 0 | 0.0 | 4.0 | 0.00 | 0.00 | 0.00 | 84 | 1015.8 |
| 20260507132526 | 81 | 206 | 0.0 | 5.0 | 0.00 | 0.00 | 0.00 | 83 | 1015.7 |
| 20260507132021 | 81 | 0 | 0.0 | 5.0 | 0.00 | 0.00 | 0.00 | 83 | 1015.7 |
| 20260507131539 | 81 | 134 | 0.0 | 4.0 | 0.00 | 0.00 | 0.00 | 84 | 1015.8 |
| 20260507131022 | 82 | 198 | 0.0 | 4.0 | 0.00 | 0.00 | 0.00 | 84 | 1015.6 |
| 20260507130524 | 82 | 167 | 0.0 | 3.0 | 0.00 | 0.00 | 0.00 | 84 | 1015.5 |
| 20260507130049 | 82 | 0 | 0.0 | 4.0 | 0.00 | 0.00 | 0.00 | 85 | 1015.5 |
| 20260507125524 | 82 | 146 | 1.0 | 4.0 | 0.00 | 0.05 | 0.00 | 86 | 1015.4 |
| 20260507125023 | 82 | 175 | 1.0 | 5.0 | 0.00 | 0.05 | 0.00 | 86 | 1015.5 |
| 20260507124541 | 82 | 0 | 1.0 | 8.0 | 0.00 | 0.05 | 0.00 | 87 | 1015.4 |
| 20260507124021 | 81 | 42 | 2.0 | 8.0 | 0.00 | 0.05 | 0.00 | 88 | 1015.3 |
| 20260507123522 | 81 | 72 | 1.0 | 5.0 | 0.00 | 0.05 | 0.00 | 88 | 1015.2 |
| 20260507123052 | 81 | 0 | 1.0 | 6.0 | 0.00 | 0.05 | 0.00 | 89 | 1015.3 |
| 20260507122521 | 80 | 66 | 1.0 | 6.0 | 0.00 | 0.05 | 0.00 | 89 | 1015.4 |
| 20260507122022 | 80 | 101 | 0.0 | 4.0 | 0.00 | 0.05 | 0.00 | 90 | 1015.3 |
| 20260507121542 | 80 | 0 | 1.0 | 4.0 | 0.00 | 0.05 | 0.00 | 90 | 1015.3 |
| 20260507121022 | 79 | 106 | 1.0 | 3.0 | 0.00 | 0.05 | 0.00 | 91 | 1015.3 |
| 20260507120521 | 79 | 81 | 1.0 | 3.0 | 0.00 | 0.05 | 0.00 | 91 | 1015.2 |
| 20260507120040 | 79 | 66 | 0.0 | 3.0 | 0.00 | 0.05 | 0.00 | 91 | 1015.2 |
| 20260507115521 | 78 | 0 | 0.0 | 2.0 | 0.00 | 0.05 | 0.00 | 92 | 1015.2 |
| 20260507115021 | 78 | 56 | 0.0 | 3.0 | 0.00 | 0.05 | 0.00 | 92 | 1015.1 |
| 20260507114538 | 78 | 56 | 1.0 | 3.0 | 0.00 | 0.05 | 0.00 | 92 | 1015.0 |
| 20260507114021 | 77 | 77 | 0.0 | 2.0 | 0.00 | 0.05 | 0.00 | 93 | 1014.9 |
| 20260507113522 | 77 | 0 | 0.0 | 2.0 | 0.00 | 0.05 | 0.00 | 93 | 1014.9 |
| 20260507113042 | 77 | 77 | 0.0 | 1.0 | 0.00 | 0.05 | 0.00 | 93 | 1014.7 |
| 20260507112522 | 76 | 0 | 0.0 | 1.0 | 0.00 | 0.05 | 0.00 | 93 | 1014.7 |
| 20260507112022 | 76 | 0 | 0.0 | 1.0 | 0.00 | 0.05 | 0.00 | 93 | 1014.6 |
| 20260507111544 | 76 | 0 | 0.0 | 2.0 | 0.00 | 0.05 | 0.00 | 93 | 1014.5 |
| 20260507111022 | 76 | 0 | 0.0 | 2.0 | 0.00 | 0.05 | 0.00 | 93 | 1014.5 |
| 20260507110521 | 76 | 0 | 0.0 | 2.0 | 0.00 | 0.05 | 0.00 | 93 | 1014.5 |
| 20260507110039 | 76 | 0 | 0.0 | 1.0 | 0.00 | 0.05 | 0.00 | 93 | 1014.4 |
| 20260507105521 | 76 | 0 | 0.0 | 1.0 | 0.00 | 0.05 | 0.00 | 93 | 1014.3 |
| 20260507105021 | 76 | 0 | 0.0 | 1.0 | 0.00 | 0.05 | 0.00 | 93 | 1014.3 |
| 20260507104541 | 76 | 0 | 0.0 | 1.0 | 0.00 | 0.05 | 0.00 | 93 | 1014.3 |
| 20260507104024 | 76 | 0 | 0.0 | 1.0 | 0.00 | 0.05 | 0.00 | 93 | 1014.3 |
| 20260507103521 | 76 | 0 | 0.0 | 1.0 | 0.00 | 0.05 | 0.00 | 93 | 1014.3 |
| 20260507103036 | 76 | 0 | 0.0 | 1.0 | 0.00 | 0.05 | 0.00 | 93 | 1014.2 |
| 20260507102521 | 76 | 0 | 0.0 | 2.0 | 0.00 | 0.05 | 0.00 | 93 | 1014.3 |
| 20260507102022 | 76 | 0 | 0.0 | 2.0 | 0.00 | 0.05 | 0.00 | 93 | 1014.2 |
| 20260507101546 | 76 | 0 | 0.0 | 1.0 | 0.00 | 0.05 | 0.00 | 93 | 1014.2 |
| 20260507101022 | 76 | 77 | 0.0 | 1.0 | 0.00 | 0.05 | 0.00 | 92 | 1014.1 |
| 20260507100521 | 76 | 0 | 0.0 | 0.0 | 0.00 | 0.05 | 0.00 | 92 | 1014.2 |
| 20260507100041 | 76 | 0 | 0.0 | 1.0 | 0.00 | 0.05 | 0.00 | 92 | 1014.1 |
| 20260507095522 | 76 | 0 | 0.0 | 2.0 | 0.00 | 0.05 | 0.00 | 92 | 1014.2 |
| 20260507095022 | 76 | 0 | 0.0 | 2.0 | 0.00 | 0.05 | 0.00 | 92 | 1014.2 |
| 20260507094540 | 76 | 0 | 0.0 | 1.0 | 0.00 | 0.05 | 0.00 | 92 | 1014.1 |
| 20260507094021 | 76 | 0 | 0.0 | 0.0 | 0.00 | 0.05 | 0.00 | 92 | 1014.0 |
| 20260507093523 | 76 | 0 | 0.0 | 0.0 | 0.00 | 0.05 | 0.00 | 92 | 1014.0 |
| 20260507093040 | 76 | 0 | 0.0 | 0.0 | 0.00 | 0.05 | 0.00 | 92 | 1014.1 |
| 20260507092524 | 76 | 0 | 0.0 | 0.0 | 0.00 | 0.05 | 0.00 | 92 | 1014.1 |
| 20260507092021 | 76 | 0 | 0.0 | 0.0 | 0.00 | 0.05 | 0.00 | 92 | 1013.9 |
| 20260507091534 | 76 | 0 | 0.0 | 0.0 | 0.00 | 0.05 | 0.00 | 92 | 1013.9 |
| 20260507091021 | 76 | 0 | 0.0 | 0.0 | 0.00 | 0.05 | 0.00 | 92 | 1013.9 |
| 20260507090523 | 76 | 0 | 0.0 | 0.0 | 0.00 | 0.05 | 0.00 | 91 | 1014.0 |
| 20260507090043 | 76 | 0 | 0.0 | 1.0 | 0.00 | 0.05 | 0.00 | 91 | 1014.0 |
| 20260507085522 | 76 | 0 | 0.0 | 1.0 | 0.00 | 0.05 | 0.00 | 91 | 1014.0 |
| 20260507085022 | 77 | 0 | 0.0 | 1.0 | 0.00 | 0.05 | 0.00 | 91 | 1014.1 |
| 20260507084541 | 77 | 0 | 0.0 | 1.0 | 0.00 | 0.05 | 0.00 | 91 | 1014.0 |
| 20260507084026 | 77 | 0 | 0.0 | 2.0 | 0.00 | 0.05 | 0.00 | 91 | 1014.0 |
| 20260507083521 | 77 | 0 | 0.0 | 2.0 | 0.00 | 0.05 | 0.00 | 91 | 1013.9 |
| 20260507083047 | 77 | 77 | 0.0 | 2.0 | 0.00 | 0.05 | 0.00 | 91 | 1014.0 |
| 20260507082522 | 77 | 0 | 0.0 | 2.0 | 0.00 | 0.05 | 0.00 | 91 | 1013.9 |
| 20260507082021 | 77 | 0 | 0.0 | 2.0 | 0.00 | 0.05 | 0.00 | 91 | 1013.9 |
| 20260507081538 | 77 | 77 | 0.0 | 2.0 | 0.00 | 0.05 | 0.00 | 91 | 1014.0 |
| 20260507081022 | 77 | 77 | 0.0 | 2.0 | 0.00 | 0.05 | 0.00 | 91 | 1014.0 |
| 20260507080524 | 77 | 0 | 0.0 | 1.0 | 0.00 | 0.05 | 0.00 | 90 | 1014.0 |
| 20260507080035 | 77 | 0 | 0.0 | 1.0 | 0.00 | 0.05 | 0.00 | 90 | 1014.1 |
| 20260507075521 | 77 | 0 | 0.0 | 2.0 | 0.00 | 0.05 | 0.00 | 90 | 1014.0 |
| 20260507075022 | 77 | 0 | 0.0 | 3.0 | 0.00 | 0.05 | 0.00 | 90 | 1014.1 |
| 20260507074545 | 77 | 77 | 0.0 | 3.0 | 0.00 | 0.05 | 0.00 | 90 | 1014.1 |
| 20260507074020 | 78 | 82 | 1.0 | 4.0 | 0.00 | 0.05 | 0.00 | 90 | 1014.1 |
| 20260507073523 | 77 | 52 | 0.0 | 4.0 | 0.00 | 0.05 | 0.00 | 90 | 1014.1 |
| 20260507073040 | 77 | 0 | 0.0 | 3.0 | 0.00 | 0.05 | 0.00 | 91 | 1014.2 |
| 20260507072522 | 77 | 0 | 0.0 | 2.0 | 0.00 | 0.05 | 0.00 | 91 | 1014.2 |
| 20260507072021 | 77 | 0 | 0.0 | 1.0 | 0.00 | 0.05 | 0.00 | 91 | 1014.2 |
| 20260507071554 | 77 | 0 | 0.0 | 1.0 | 0.00 | 0.05 | 0.00 | 90 | 1014.4 |
| 20260507071025 | 77 | 0 | 0.0 | 0.0 | 0.00 | 0.05 | 0.00 | 90 | 1014.4 |
| 20260507070521 | 77 | 0 | 0.0 | 0.0 | 0.00 | 0.05 | 0.00 | 90 | 1014.5 |
| 20260507070039 | 77 | 0 | 0.0 | 0.0 | 0.00 | 0.05 | 0.00 | 90 | 1014.5 |
| 20260507065521 | 77 | 0 | 0.0 | 0.0 | 0.00 | 0.05 | 0.00 | 90 | 1014.6 |
| 20260507065021 | 77 | 0 | 0.0 | 0.0 | 0.00 | 0.05 | 0.00 | 90 | 1014.5 |
| 20260507064542 | 77 | 0 | 0.0 | 0.0 | 0.00 | 0.05 | 0.00 | 90 | 1014.6 |
| 20260507064024 | 77 | 0 | 0.0 | 0.0 | 0.00 | 0.05 | 0.00 | 90 | 1014.7 |
| 20260507063520 | 77 | 0 | 0.0 | 0.0 | 0.00 | 0.05 | 0.00 | 90 | 1014.7 |
| 20260507063041 | 77 | 0 | 0.0 | 1.0 | 0.00 | 0.05 | 0.00 | 90 | 1014.8 |
| 20260507062521 | 77 | 0 | 0.0 | 1.0 | 0.00 | 0.05 | 0.00 | 89 | 1014.9 |
| 20260507062021 | 77 | 0 | 0.0 | 0.0 | 0.00 | 0.05 | 0.00 | 89 | 1014.9 |
| 20260507061542 | 77 | 0 | 0.0 | 0.0 | 0.00 | 0.05 | 0.00 | 89 | 1014.8 |
| 20260507061018 | 77 | 0 | 0.0 | 0.0 | 0.00 | 0.05 | 0.00 | 88 | 1015.0 |
| 20260507060520 | 77 | 0 | 0.0 | 0.0 | 0.00 | 0.05 | 0.00 | 88 | 1014.9 |
| 20260507060039 | 78 | 0 | 0.0 | 0.0 | 0.00 | 0.05 | 0.00 | 88 | 1015.0 |
| 20260507055521 | 78 | 0 | 0.0 | 0.0 | 0.00 | 0.05 | 0.00 | 87 | 1015.0 |
| 20260507055023 | 78 | 0 | 0.0 | 0.0 | 0.00 | 0.05 | 0.00 | 87 | 1015.0 |
| 20260507054546 | 79 | 0 | 0.0 | 0.0 | 0.00 | 0.05 | 0.00 | 86 | 1015.1 |
| 20260507054020 | 79 | 0 | 0.0 | 2.0 | 0.00 | 0.05 | 0.00 | 85 | 1015.2 |
| 20260507053521 | 80 | 0 | 0.0 | 3.0 | 0.00 | 0.05 | 0.00 | 85 | 1015.3 |
| 20260507053043 | 80 | 0 | 0.0 | 3.0 | 0.00 | 0.05 | 0.00 | 85 | 1015.2 |
| 20260507052521 | 80 | 0 | 1.0 | 3.0 | 0.00 | 0.05 | 0.00 | 85 | 1015.4 |
| 20260507052021 | 81 | 0 | 0.0 | 2.0 | 0.00 | 0.05 | 0.00 | 85 | 1015.5 |
| 20260507051540 | 80 | 0 | 0.0 | 2.0 | 0.00 | 0.05 | 0.00 | 85 | 1015.5 |
| 20260507051021 | 80 | 0 | 0.0 | 2.0 | 0.00 | 0.05 | 0.00 | 85 | 1015.5 |
| 20260507050520 | 80 | 0 | 0.0 | 2.0 | 0.00 | 0.05 | 0.00 | 85 | 1015.6 |
| 20260507050039 | 80 | 0 | 0.0 | 2.0 | 0.00 | 0.05 | 0.00 | 85 | 1015.7 |
| 20260507045521 | 80 | 0 | 0.0 | 3.0 | 0.00 | 0.05 | 0.05 | 85 | 1015.6 |
| 20260507045019 | 80 | 92 | 0.0 | 3.0 | 0.00 | 0.05 | 0.05 | 85 | 1015.8 |
| 20260507044539 | 80 | 0 | 0.0 | 3.0 | 0.00 | 0.05 | 0.05 | 85 | 1015.8 |
| 20260507044019 | 80 | 0 | 0.0 | 3.0 | 0.00 | 0.05 | 0.05 | 85 | 1015.7 |
| 20260507043521 | 80 | 0 | 0.0 | 3.0 | 0.00 | 0.05 | 0.05 | 85 | 1015.8 |
| 20260507043040 | 80 | 0 | 0.0 | 1.0 | 0.00 | 0.05 | 0.05 | 85 | 1015.7 |
| 20260507042521 | 80 | 0 | 0.0 | 1.0 | 0.00 | 0.05 | 0.05 | 85 | 1015.7 |
| 20260507042021 | 80 | 0 | 0.0 | 1.0 | 0.00 | 0.05 | 0.05 | 85 | 1015.8 |
| 20260507041539 | 80 | 51 | 0.0 | 2.0 | 0.00 | 0.05 | 0.05 | 85 | 1015.8 |
| 20260507041021 | 80 | 24 | 0.0 | 2.0 | 0.00 | 0.05 | 0.05 | 85 | 1015.7 |
| 20260507040518 | 80 | 0 | 0.0 | 2.0 | 0.00 | 0.05 | 0.05 | 86 | 1015.7 |
| 20260507040057 | 80 | 0 | 0.0 | 2.0 | 0.00 | 0.05 | 0.05 | 86 | 1015.8 |
| 20260507035519 | 80 | 64 | 0.0 | 2.0 | 0.00 | 0.05 | 0.05 | 86 | 1015.6 |
| 20260507035019 | 80 | 0 | 0.0 | 0.0 | 0.00 | 0.05 | 0.05 | 86 | 1015.7 |
| 20260507034547 | 80 | 0 | 0.0 | 2.0 | 0.00 | 0.05 | 0.05 | 86 | 1015.7 |
| 20260507034021 | 80 | 0 | 0.0 | 2.0 | 0.00 | 0.05 | 0.05 | 86 | 1015.7 |
| 20260507033520 | 80 | 0 | 0.0 | 2.0 | 0.00 | 0.05 | 0.05 | 86 | 1015.7 |
| 20260507033042 | 80 | 0 | 0.0 | 0.0 | 0.00 | 0.05 | 0.05 | 86 | 1015.8 |
| 20260507032519 | 80 | 0 | 0.0 | 1.0 | 0.00 | 0.05 | 0.05 | 85 | 1015.8 |
| 20260507032022 | 80 | 0 | 0.0 | 1.0 | 0.00 | 0.05 | 0.05 | 85 | 1015.8 |
| 20260507031538 | 80 | 0 | 0.0 | 2.0 | 0.00 | 0.05 | 0.05 | 85 | 1015.8 |
| 20260507031018 | 80 | 0 | 0.0 | 2.0 | 0.00 | 0.05 | 0.05 | 85 | 1015.9 |
| 20260507030521 | 80 | 0 | 0.0 | 2.0 | 0.00 | 0.05 | 0.05 | 85 | 1015.7 |
| 20260507030040 | 81 | 0 | 0.0 | 3.0 | 0.00 | 0.05 | 0.05 | 85 | 1015.7 |
| 20260507025521 | 81 | 0 | 0.0 | 3.0 | 0.00 | 0.05 | 0.05 | 85 | 1015.6 |
| 20260507025021 | 80 | 0 | 0.0 | 1.0 | 0.00 | 0.05 | 0.05 | 85 | 1015.6 |
| 20260507024538 | 81 | 0 | 0.0 | 1.0 | 0.00 | 0.05 | 0.05 | 84 | 1015.5 |
| 20260507024023 | 81 | 0 | 0.0 | 0.0 | 0.00 | 0.05 | 0.05 | 84 | 1015.4 |
| 20260507023520 | 81 | 0 | 0.0 | 0.0 | 0.00 | 0.05 | 0.05 | 84 | 1015.3 |
| 20260507023033 | 81 | 0 | 0.0 | 0.0 | 0.00 | 0.05 | 0.05 | 84 | 1015.4 |
| 20260507022521 | 81 | 0 | 0.0 | 1.0 | 0.00 | 0.05 | 0.05 | 84 | 1015.3 |
| 20260507022020 | 81 | 0 | 0.0 | 1.0 | 0.00 | 0.05 | 0.05 | 84 | 1015.3 |
| 20260507021541 | 81 | 0 | 0.0 | 1.0 | 0.00 | 0.05 | 0.05 | 84 | 1015.3 |
| 20260507021021 | 81 | 0 | 0.0 | 1.0 | 0.00 | 0.05 | 0.05 | 84 | 1015.3 |
| 20260507020520 | 81 | 0 | 0.0 | 1.0 | 0.00 | 0.05 | 0.05 | 84 | 1015.3 |
| 20260507020042 | 81 | 0 | 0.0 | 1.0 | 0.00 | 0.05 | 0.05 | 84 | 1015.2 |
| 20260507015524 | 81 | 0 | 0.0 | 1.0 | 0.00 | 0.05 | 0.05 | 83 | 1015.4 |
| 20260507015021 | 81 | 0 | 0.0 | 2.0 | 0.00 | 0.05 | 0.05 | 83 | 1015.4 |
| 20260507014535 | 81 | 0 | 0.0 | 2.0 | 0.00 | 0.05 | 0.05 | 83 | 1015.3 |
| 20260507014020 | 81 | 0 | 0.0 | 3.0 | 0.00 | 0.05 | 0.05 | 84 | 1015.4 |
| 20260507013521 | 81 | 0 | 0.0 | 3.0 | 0.00 | 0.05 | 0.05 | 83 | 1015.2 |
| 20260507013040 | 81 | 0 | 0.0 | 2.0 | 0.00 | 0.05 | 0.05 | 83 | 1015.2 |
| 20260507012523 | 82 | 0 | 0.0 | 2.0 | 0.00 | 0.05 | 0.05 | 83 | 1015.0 |
| 20260507012021 | 82 | 78 | 0.0 | 2.0 | 0.00 | 0.05 | 0.05 | 83 | 1015.1 |
| 20260507011541 | 82 | 0 | 0.0 | 1.0 | 0.00 | 0.05 | 0.05 | 82 | 1015.0 |
| 20260507011019 | 82 | 0 | 0.0 | 1.0 | 0.00 | 0.05 | 0.05 | 82 | 1014.9 |
| 20260507010520 | 82 | 58 | 0.0 | 1.0 | 0.00 | 0.05 | 0.05 | 82 | 1014.8 |
| 20260507010039 | 82 | 0 | 0.0 | 1.0 | 0.00 | 0.05 | 0.05 | 81 | 1014.8 |
| 20260507005520 | 82 | 0 | 0.0 | 1.0 | 0.00 | 0.05 | 0.05 | 81 | 1014.8 |
| 20260507005020 | 82 | 0 | 0.0 | 1.0 | 0.00 | 0.05 | 0.05 | 81 | 1014.8 |
| 20260507004539 | 82 | 0 | 0.0 | 1.0 | 0.00 | 0.05 | 0.05 | 81 | 1014.7 |
| 20260507004020 | 82 | 0 | 0.0 | 2.0 | 0.00 | 0.05 | 0.05 | 81 | 1014.7 |
| 20260507003521 | 82 | 0 | 0.0 | 3.0 | 0.00 | 0.05 | 0.05 | 80 | 1014.7 |
| 20260507003040 | 82 | 0 | 0.0 | 3.0 | 0.00 | 0.05 | 0.05 | 80 | 1014.7 |
| 20260507002521 | 82 | 0 | 0.0 | 3.0 | 0.00 | 0.05 | 0.05 | 80 | 1014.7 |
| 20260507002021 | 82 | 70 | 0.0 | 3.0 | 0.00 | 0.05 | 0.05 | 80 | 1014.7 |
| 20260507001549 | 83 | 192 | 0.0 | 3.0 | 0.00 | 0.05 | 0.05 | 80 | 1014.7 |
| 20260507001020 | 83 | 91 | 0.0 | 2.0 | 0.00 | 0.05 | 0.05 | 79 | 1014.7 |
| 20260507000523 | 83 | 123 | 0.0 | 2.0 | 0.00 | 0.05 | 0.05 | 79 | 1014.6 |
| 20260507000040 | 83 | 98 | 0.0 | 1.0 | 0.00 | 0.05 | 0.05 | 79 | 1014.5 |
| 20260506235521 | 83 | 0 | 0.0 | 2.0 | 0.00 | 0.05 | 0.05 | 79 | 1014.3 |
| 20260506235020 | 83 | 0 | 0.0 | 2.0 | 0.00 | 0.05 | 0.05 | 78 | 1014.3 |
| 20260506234544 | 83 | 0 | 0.0 | 2.0 | 0.00 | 0.05 | 0.05 | 78 | 1014.3 |
| 20260506234020 | 83 | 0 | 0.0 | 2.0 | 0.00 | 0.05 | 0.05 | 78 | 1014.2 |
| 20260506233521 | 83 | 0 | 0.0 | 4.0 | 0.00 | 0.05 | 0.05 | 77 | 1014.3 |
| 20260506233039 | 83 | 189 | 1.0 | 4.0 | 0.00 | 0.05 | 0.05 | 77 | 1014.3 |
| 20260506232520 | 84 | 222 | 0.0 | 4.0 | 0.00 | 0.05 | 0.05 | 77 | 1014.3 |
| 20260506232021 | 84 | 117 | 0.0 | 4.0 | 0.00 | 0.05 | 0.05 | 77 | 1014.2 |
| 20260506231540 | 84 | 0 | 0.0 | 3.0 | 0.00 | 0.05 | 0.05 | 77 | 1014.3 |
| 20260506231021 | 84 | 173 | 0.0 | 4.0 | 0.00 | 0.05 | 0.05 | 76 | 1014.2 |
| 20260506230518 | 84 | 0 | 0.0 | 4.0 | 0.00 | 0.05 | 0.05 | 76 | 1014.2 |
| 20260506230039 | 84 | 226 | 1.0 | 4.0 | 0.00 | 0.05 | 0.05 | 76 | 1014.2 |
| 20260506225520 | 84 | 111 | 1.0 | 2.0 | 0.00 | 0.05 | 0.05 | 76 | 1014.2 |
| 20260506225020 | 84 | 0 | 0.0 | 4.0 | 0.00 | 0.05 | 0.05 | 76 | 1014.2 |
| 20260506224537 | 85 | 96 | 1.0 | 4.0 | 0.00 | 0.05 | 0.05 | 75 | 1014.2 |
| 20260506224021 | 85 | 298 | 1.0 | 3.0 | 0.00 | 0.05 | 0.05 | 74 | 1014.1 |
| 20260506223517 | 85 | 63 | 0.0 | 3.0 | 0.00 | 0.05 | 0.05 | 75 | 1014.1 |
| 20260506223038 | 85 | 50 | 0.0 | 3.0 | 0.00 | 0.05 | 0.05 | 74 | 1014.1 |
| 20260506222521 | 85 | 114 | 0.0 | 7.0 | 0.00 | 0.05 | 0.05 | 73 | 1014.0 |
| 20260506222020 | 85 | 161 | 0.0 | 8.0 | 0.00 | 0.05 | 0.05 | 73 | 1013.9 |
| 20260506221538 | 85 | 62 | 2.0 | 8.0 | 0.00 | 0.05 | 0.05 | 72 | 1013.8 |
| 20260506221021 | 85 | 91 | 1.0 | 6.0 | 0.00 | 0.05 | 0.05 | 73 | 1013.9 |
| 20260506220521 | 85 | 152 | 2.0 | 10.0 | 0.00 | 0.05 | 0.05 | 72 | 1013.8 |
| 20260506220057 | 86 | 136 | 1.0 | 10.0 | 0.00 | 0.05 | 0.05 | 72 | 1013.8 |
| 20260506215520 | 86 | 82 | 1.0 | 10.0 | 0.00 | 0.05 | 0.05 | 73 | 1013.8 |
| 20260506215021 | 85 | 35 | 1.0 | 10.0 | 0.00 | 0.05 | 0.05 | 74 | 1013.8 |
| 20260506214539 | 86 | 78 | 2.0 | 9.0 | 0.00 | 0.05 | 0.05 | 75 | 1013.7 |
| 20260506214020 | 87 | 37 | 2.0 | 9.0 | 0.00 | 0.05 | 0.05 | 73 | 1013.8 |
| 20260506213520 | 87 | 70 | 1.0 | 9.0 | 0.00 | 0.05 | 0.05 | 73 | 1013.9 |
| 20260506213039 | 87 | 56 | 2.0 | 7.0 | 0.00 | 0.05 | 0.05 | 73 | 1013.9 |
| 20260506212522 | 87 | 66 | 1.0 | 12.0 | 0.00 | 0.05 | 0.05 | 72 | 1013.8 |
| 20260506212020 | 87 | 51 | 3.0 | 12.0 | 0.00 | 0.05 | 0.05 | 71 | 1013.8 |
| 20260506211538 | 87 | 84 | 1.0 | 10.0 | 0.00 | 0.05 | 0.05 | 72 | 1013.9 |
| 20260506211020 | 87 | 76 | 2.0 | 11.0 | 0.00 | 0.05 | 0.05 | 71 | 1013.8 |
| 20260506210520 | 87 | 84 | 4.0 | 11.0 | 0.00 | 0.05 | 0.05 | 70 | 1013.9 |
| 20260506210050 | 87 | 87 | 3.0 | 10.0 | 0.00 | 0.05 | 0.05 | 70 | 1013.9 |
| 20260506205521 | 87 | 98 | 1.0 | 10.0 | 0.00 | 0.05 | 0.05 | 71 | 1014.1 |
| 20260506205021 | 87 | 74 | 1.0 | 6.0 | 0.00 | 0.05 | 0.05 | 72 | 1014.0 |
| 20260506204541 | 87 | 78 | 1.0 | 8.0 | 0.00 | 0.05 | 0.05 | 71 | 1014.1 |
| 20260506204020 | 88 | 28 | 3.0 | 8.0 | 0.00 | 0.05 | 0.05 | 70 | 1014.2 |
| 20260506203521 | 88 | 0 | 2.0 | 10.0 | 0.00 | 0.05 | 0.05 | 71 | 1014.1 |
| 20260506203113 | 88 | 102 | 3.0 | 10.0 | 0.00 | 0.05 | 0.05 | 70 | 1014.3 |
| 20260506202521 | 88 | 67 | 2.0 | 10.0 | 0.00 | 0.05 | 0.05 | 72 | 1014.3 |
| 20260506202020 | 88 | 66 | 1.0 | 10.0 | 0.00 | 0.05 | 0.05 | 70 | 1014.2 |
| 20260506201540 | 88 | 82 | 2.0 | 11.0 | 0.00 | 0.05 | 0.05 | 70 | 1014.4 |
| 20260506201019 | 88 | 65 | 1.0 | 11.0 | 0.00 | 0.05 | 0.05 | 70 | 1014.3 |
| 20260506200517 | 88 | 92 | 3.0 | 12.0 | 0.00 | 0.05 | 0.05 | 71 | 1014.3 |
| 20260506200046 | 88 | 0 | 2.0 | 12.0 | 0.00 | 0.05 | 0.05 | 72 | 1014.3 |
| 20260506195521 | 88 | 78 | 3.0 | 9.0 | 0.00 | 0.05 | 0.05 | 71 | 1014.4 |
| 20260506195021 | 88 | 0 | 3.0 | 9.0 | 0.00 | 0.05 | 0.05 | 72 | 1014.4 |
| 20260506194540 | 88 | 0 | 2.0 | 8.0 | 0.00 | 0.05 | 0.05 | 72 | 1014.5 |
| 20260506194021 | 89 | 167 | 1.0 | 8.0 | 0.00 | 0.05 | 0.05 | 72 | 1014.5 |
| 20260506193520 | 89 | 34 | 2.0 | 8.0 | 0.00 | 0.05 | 0.05 | 71 | 1014.4 |
| 20260506193039 | 88 | 227 | 2.0 | 7.0 | 0.00 | 0.05 | 0.05 | 73 | 1014.6 |
| 20260506192520 | 88 | 323 | 1.0 | 7.0 | 0.00 | 0.05 | 0.05 | 73 | 1014.6 |
| 20260506192020 | 87 | 225 | 2.0 | 7.0 | 0.00 | 0.05 | 0.05 | 72 | 1014.6 |
| 20260506191539 | 88 | 146 | 2.0 | 8.0 | 0.00 | 0.05 | 0.05 | 73 | 1014.7 |
| 20260506191021 | 88 | 0 | 1.0 | 8.0 | 0.00 | 0.05 | 0.05 | 74 | 1014.7 |
| 20260506190520 | 89 | 72 | 2.0 | 8.0 | 0.00 | 0.05 | 0.05 | 72 | 1014.8 |
| 20260506190046 | 88 | 225 | 2.0 | 8.0 | 0.00 | 0.05 | 0.05 | 72 | 1014.9 |
| 20260506185519 | 89 | 0 | 2.0 | 9.0 | 0.00 | 0.05 | 0.05 | 70 | 1015.0 |
| 20260506185017 | 89 | 192 | 1.0 | 9.0 | 0.00 | 0.05 | 0.05 | 71 | 1014.9 |
| 20260506184541 | 89 | 102 | 1.0 | 9.0 | 0.00 | 0.05 | 0.05 | 71 | 1015.0 |
| 20260506184022 | 89 | 232 | 1.0 | 11.0 | 0.00 | 0.05 | 0.05 | 69 | 1015.0 |
| 20260506183520 | 89 | 231 | 1.0 | 11.0 | 0.00 | 0.05 | 0.05 | 69 | 1015.1 |
| 20260506183041 | 89 | 80 | 3.0 | 11.0 | 0.00 | 0.05 | 0.05 | 70 | 1015.0 |
| 20260506182520 | 89 | 200 | 1.0 | 8.0 | 0.00 | 0.05 | 0.05 | 69 | 1015.1 |
| 20260506182024 | 89 | 233 | 1.0 | 6.0 | 0.00 | 0.05 | 0.05 | 73 | 1015.1 |
| 20260506181539 | 88 | 86 | 2.0 | 6.0 | 0.00 | 0.05 | 0.05 | 74 | 1015.2 |
| 20260506181023 | 88 | 213 | 1.0 | 10.0 | 0.00 | 0.05 | 0.05 | 69 | 1015.3 |
| 20260506180523 | 89 | 128 | 3.0 | 10.0 | 0.00 | 0.05 | 0.05 | 74 | 1015.4 |
| 20260506180038 | 89 | 187 | 0.0 | 9.0 | 0.00 | 0.05 | 0.05 | 73 | 1015.5 |
| 20260506175523 | 89 | 0 | 1.0 | 9.0 | 0.00 | 0.05 | 0.05 | 71 | 1015.5 |
| 20260506175020 | 89 | 142 | 2.0 | 9.0 | 0.00 | 0.05 | 0.05 | 71 | 1015.6 |
| 20260506174539 | 89 | 252 | 2.0 | 8.0 | 0.00 | 0.05 | 0.05 | 71 | 1015.6 |
| 20260506174019 | 88 | 0 | 0.0 | 10.0 | 0.00 | 0.05 | 0.05 | 72 | 1015.6 |
| 20260506173522 | 88 | 81 | 3.0 | 10.0 | 0.00 | 0.05 | 0.05 | 73 | 1015.6 |
| 20260506173044 | 88 | 5 | 1.0 | 9.0 | 0.00 | 0.05 | 0.05 | 72 | 1015.6 |
| 20260506172522 | 88 | 232 | 1.0 | 5.0 | 0.00 | 0.05 | 0.05 | 74 | 1015.6 |
| 20260506172022 | 88 | 0 | 1.0 | 6.0 | 0.00 | 0.05 | 0.05 | 75 | 1015.7 |
| 20260506171535 | 89 | 0 | 2.0 | 9.0 | 0.00 | 0.05 | 0.05 | 75 | 1015.7 |
| 20260506171022 | 88 | 0 | 2.0 | 9.0 | 0.00 | 0.05 | 0.05 | 73 | 1015.8 |
| 20260506170524 | 87 | 33 | 2.0 | 7.0 | 0.00 | 0.05 | 0.05 | 73 | 1015.7 |
| 20260506170043 | 87 | 0 | 1.0 | 8.0 | 0.00 | 0.05 | 0.05 | 74 | 1015.9 |
| 20260506165523 | 87 | 146 | 1.0 | 8.0 | 0.00 | 0.05 | 0.05 | 74 | 1015.9 |
| 20260506165022 | 87 | 74 | 2.0 | 8.0 | 0.00 | 0.05 | 0.05 | 73 | 1016.0 |
| 20260506164545 | 88 | 121 | 1.0 | 7.0 | 0.00 | 0.05 | 0.05 | 73 | 1016.0 |
| 20260506164022 | 88 | 130 | 1.0 | 8.0 | 0.00 | 0.05 | 0.05 | 73 | 1016.1 |
| 20260506163522 | 87 | 0 | 1.0 | 8.0 | 0.00 | 0.05 | 0.05 | 74 | 1016.0 |
| 20260506163055 | 88 | 38 | 2.0 | 8.0 | 0.00 | 0.05 | 0.05 | 72 | 1016.1 |
| 20260506162523 | 88 | 201 | 1.0 | 5.0 | 0.00 | 0.05 | 0.05 | 72 | 1016.2 |
| 20260506162023 | 88 | 219 | 2.0 | 7.0 | 0.00 | 0.05 | 0.05 | 73 | 1016.1 |
| 20260506161539 | 87 | 17 | 1.0 | 7.0 | 0.00 | 0.05 | 0.05 | 73 | 1016.1 |
| 20260506161022 | 88 | 211 | 1.0 | 5.0 | 0.00 | 0.05 | 0.05 | 73 | 1016.1 |
| 20260506160522 | 88 | 55 | 1.0 | 8.0 | 0.00 | 0.05 | 0.05 | 72 | 1016.0 |
| 20260506160043 | 88 | 69 | 1.0 | 8.0 | 0.00 | 0.05 | 0.05 | 71 | 1016.1 |
| 20260506155522 | 88 | 155 | 2.0 | 8.0 | 0.00 | 0.05 | 0.05 | 72 | 1016.1 |
| 20260506155022 | 88 | 99 | 1.0 | 8.0 | 0.00 | 0.05 | 0.05 | 74 | 1016.1 |
| 20260506154547 | 88 | 163 | 1.0 | 8.0 | 0.00 | 0.05 | 0.05 | 76 | 1016.1 |
| 20260506154022 | 87 | 76 | 1.0 | 9.0 | 0.00 | 0.05 | 0.05 | 76 | 1016.3 |
| 20260506153521 | 87 | 130 | 1.0 | 12.0 | 0.00 | 0.05 | 0.05 | 75 | 1016.3 |
| 20260506153038 | 87 | 79 | 3.0 | 12.0 | 0.00 | 0.05 | 0.05 | 77 | 1016.3 |
| 20260506152522 | 87 | 0 | 2.0 | 12.0 | 0.00 | 0.05 | 0.05 | 77 | 1016.4 |
| 20260506152023 | 87 | 26 | 3.0 | 9.0 | 0.00 | 0.05 | 0.05 | 77 | 1016.4 |
| 20260506151542 | 87 | 0 | 1.0 | 10.0 | 0.00 | 0.05 | 0.05 | 76 | 1016.3 |
| 20260506151022 | 87 | 91 | 3.0 | 10.0 | 0.00 | 0.05 | 0.05 | 75 | 1016.4 |
| 20260506150522 | 87 | 53 | 3.0 | 10.0 | 0.00 | 0.05 | 0.05 | 76 | 1016.3 |
| 20260506150039 | 87 | 191 | 2.0 | 14.0 | 0.00 | 0.05 | 0.05 | 78 | 1016.3 |
| 20260506145522 | 86 | 53 | 4.0 | 14.0 | 0.00 | 0.05 | 0.05 | 77 | 1016.3 |
| 20260506145023 | 87 | 69 | 3.0 | 11.0 | 0.00 | 0.05 | 0.05 | 77 | 1016.3 |
| 20260506144545 | 87 | 125 | 1.0 | 11.0 | 0.00 | 0.05 | 0.05 | 77 | 1016.3 |
| 20260506144022 | 86 | 67 | 3.0 | 12.0 | 0.00 | 0.05 | 0.05 | 76 | 1016.2 |
| 20260506143522 | 87 | 59 | 6.0 | 12.0 | 0.00 | 0.05 | 0.05 | 77 | 1016.1 |
| 20260506143039 | 87 | 114 | 2.0 | 11.0 | 0.00 | 0.05 | 0.05 | 77 | 1016.1 |